Terminal Aerodrome Forecast
Issued by NWS Charleston, WV

Current Version | Previous Version | Graphics & Text | Print | Product List | Glossary On
Versions: 1 2 3 4 5 6 7 8 9 10 11 12 13 14 15 16 17 18 19 20 21 22 23
000
FTUS41 KRLX 130800 AAA
TAFHTS
TAF AMD
KHTS 130852Z 1309/1406 17004KT P6SM SCT250
     FM131400 20011KT P6SM SCT250
     FM131500 21015G23KT P6SM SCT250
     FM140100 18009KT P6SM SCT140=

USA.gov is the U.S. government's official web portal to all federal, state and local government web resources and services.